Location: Amberg
(48.0613°N, 10.6820°E)
Time: 00:43:29
(UTC+00:00)

Cosmos 1763 Rocket - Pass Details

Date: 18 November 2025
Orbit: 728 x 774 km, 74.0° (Epoch: 04 December)

Event Time Altitude Azimuth Distance (km) Brightness Sun altitude
Rises 16:45:54 0° 336° (NNW) 3,240 6.9 -11.6°
Reaches altitude 10° 16:48:18 10° 335° (NNW) 2,303 6.1 -12.0°
Maximum altitude 16:53:31 78° 250° (WSW) 774 3.6 -12.8°
Drops below altitude 10° 16:58:38 10° 164° (SSE) 2,256 5.9 -13.7°
Sets 17:00:58 0° 164° (SSE) 3,168 6.7 -14.0°
